Wind_Speed
13 12 12 12 11 11 11 10 11 11 11 11 12 12 12 13 13 14 14 15 15 16 17 17 18 18 19 19 20 20 20 20 20 20 20 20 20 20 20 21 21 22 22
14 13 13 12 12 12 11 11 11 12 12 12 13 13 13 14 14 14 15 15 16 17 18 18 18 19 19 20 20 20 20 21 21 20 21 21 21 21 21 21 22 22 22
13 13 13 13 13 12 12 12 12 12 13 13 13 13 14 14 14 15 15 16 17 18 18 18 18 18 19 19 19 20 20 20 20 20 21 21 21 22 22 22 22 22 22
13 13 13 13 13 13 13 13 13 13 13 13 13 13 14 15 15 16 16 17 17 17 18 18 18 18 19 19 19 19 20 20 20 21 21 21 22 22 22 22 22 22 23
12 12 13 13 13 13 13 13 13 13 13 14 14 15 15 16 16 17 17 17 17 18 18 19 19 19 19 20 20 20 21 21 21 21 21 22 22 23 23 23 23 23 23
13 13 13 14 14 14 13 14 14 14 15 15 15 16 16 16 17 17 17 18 18 19 19 19 19 20 20 21 21 21 21 21 22 22 22 23 23 24 24 24 24 24 25
14 14 14 14 13 14 14 15 15 16 16 16 16 17 17 17 17 17 18 19 19 20 20 20 20 21 21 22 22 23 23 23 23 24 24 24 24 25 25 25 26 26 26
14 14 14 14 14 15 16 16 16 16 17 17 17 17 17 17 18 18 19 20 20 21 21 22 22 23 23 23 24 24 24 25 25 25 26 26 26 26 26 26 27 27 28
14 15 15 15 16 16 16 17 17 16 16 17 17 18 18 18 18 19 20 21 21 22 23 23 24 24 25 25 26 26 26 26 27 27 27 27 27 27 28 28 28 29 29
15 16 16 16 16 17 17 17 17 17 17 17 18 18 19 19 20 21 22 22 23 23 24 25 25 25 26 26 27 27 27 28 28 28 28 28 29 29 29 29 30 30 30
16 16 17 17 17 17 18 17 17 17 18 18 19 20 20 21 22 23 23 24 24 25 25 26 26 26 27 27 28 28 28 28 28 28 29 29 30 30 30 30 30 31 31
18 18 18 18 18 18 18 18 18 19 19 20 21 22 22 23 24 24 25 25 25 26 27 27 27 27 28 28 29 29 29 29 29 29 30 30 30 30 30 31 31 32 32
19 19 19 19 19 19 19 20 20 21 22 22 23 24 24 25 25 26 26 27 27 27 28 28 29 29 29 29 29 30 30 30 30 29 30 31 31 31 31 31 32 32 33
21 21 21 21 21 22 22 22 23 23 24 25 25 26 26 27 27 28 28 28 28 29 29 29 30 30 30 30 31 31 31 31 31 30 30 31 31 31 32 32 32 33 34
24 24 24 24 24 24 24 24 25 26 26 27 27 28 28 29 29 30 30 30 30 30 30 31 31 31 31 32 32 32 32 31 32 31 31 31 32 32 33 33 34 34 35
27 27 27 27 27 27 27 27 28 28 29 29 30 30 31 31 31 31 31 31 31 31 32 32 32 32 32 32 33 33 32 32 32 32 32 32 33 34 34 34 35 36 36
30 29 30 30 30 30 30 30 30 31 31 31 32 32 32 33 33 33 33 33 33 33 33 33 33 33 33 33 33 33 33 33 33 33 33 34 34 35 36 36 36 37 37
33 32 32 33 33 32 33 33 33 32 33 33 34 34 34 34 34 34 34 34 34 34 34 34 34 34 34 34 34 34 34 34 34 35 35 35 36 36 37 38 38 38 39
36 36 35 36 36 35 35 35 35 35 35 35 35 36 36 36 36 36 36 35 35 35 35 35 35 35 35 35 35 34 35 35 36 36 37 37 38 38 38 39 40 40 40
39 39 38 38 38 38 37 37 37 37 37 37 37 37 37 37 37 36 36 36 36 36 36 36 36 35 35 35 35 36 37 37 37 38 39 39 39 40 40 40 41 41 42
41 41 40 40 40 40 40 39 39 38 38 38 38 38 38 38 37 36 36 36 36 37 37 36 36 36 36 37 37 38 38 38 39 40 41 41 41 41 41 42 42 43 43
42 43 42 42 42 42 42 41 41 40 40 39 39 39 39 38 37 37 37 37 37 37 37 37 37 37 38 38 39 39 39 40 40 42 43 43 43 43 44 44 44 45 45
43 43 44 43 42 43 43 42 41 40 40 40 40 40 40 39 38 38 38 38 38 38 38 38 38 39 39 40 40 41 41 41 41 42 43 44 45 45 45 46 46 46 46
44 45 45 44 44 43 43 42 42 42 41 41 40 40 40 39 38 38 38 38 38 38 38 38 39 40 40 41 42 42 43 43 43 42 44 45 45 46 46 46 47 47 47
44 44 44 44 44 43 43 43 43 42 42 41 41 40 40 39 39 38 38 38 38 39 39 39 40 41 41 42 42 43 43 44 45 45 44 45 45 46 46 47 47 48 48
42 42 42 43 43 42 43 43 43 42 42 41 41 40 39 39 38 38 38 38 38 39 40 40 41 42 42 42 43 44 45 46 46 46 45 45 45 45 46 47 47 48 48
Wind_Direction
230 233 237 241 244 247 251 256 262 266 271 275 279 282 285 287 290 291 294 295 296 296 296 296 296 296 295 295 294 294 293 292 291 291 290 289 289 288 287 285 283 283 281
231 234 238 241 244 248 252 258 265 271 275 278 281 284 286 289 290 292 293 295 295 296 296 295 295 295 294 293 292 292 291 291 291 290 289 288 288 286 285 283 282 281 280
231 235 239 243 246 250 255 262 268 273 277 280 283 286 289 291 292 293 295 295 296 296 296 296 296 295 294 292 292 291 290 290 289 289 288 288 287 286 284 282 281 279 278
232 237 241 246 250 254 259 264 268 272 275 279 284 288 291 293 294 295 296 296 296 297 297 298 297 296 295 294 293 292 291 291 290 289 288 288 287 286 285 284 282 280 279
234 239 243 249 255 259 263 265 268 272 276 280 284 288 290 291 293 294 295 296 296 296 297 297 296 296 295 294 293 292 292 291 290 289 288 287 286 286 285 285 283 282 280
237 243 248 253 258 261 263 267 271 275 278 282 285 287 290 291 292 292 293 295 295 296 296 296 296 295 294 293 292 292 292 292 291 290 289 288 286 285 284 284 283 282 280
239 244 249 253 256 260 264 268 272 275 278 281 284 286 288 290 292 293 294 295 296 296 296 295 295 294 293 292 292 291 291 291 291 290 289 288 287 286 285 284 282 281 280
243 247 251 254 258 263 267 271 273 276 278 281 283 285 287 290 291 292 293 294 294 294 294 294 294 293 292 292 291 291 291 290 290 290 289 288 287 286 284 283 282 281 280
247 251 255 258 262 265 268 272 275 277 279 281 284 286 287 289 291 292 293 293 293 293 293 293 293 292 291 291 291 291 291 291 290 290 289 287 286 286 285 284 282 281 280
251 254 258 262 265 268 270 273 275 277 279 282 284 286 288 289 290 290 291 291 292 292 292 292 291 291 291 291 290 290 290 291 291 290 289 288 287 286 285 284 283 282 281
255 258 261 264 267 269 271 273 275 278 280 282 284 286 288 289 290 291 291 291 291 291 291 291 291 291 291 291 291 291 291 290 290 290 289 288 287 287 285 284 283 282 281
258 259 261 264 267 270 272 274 276 278 281 283 285 286 288 289 290 290 291 291 291 291 291 291 291 291 291 292 291 290 290 290 289 289 288 288 287 286 285 284 284 283 282
259 261 263 265 267 270 272 275 278 280 282 284 286 287 289 289 290 291 291 291 291 291 291 291 291 291 291 291 291 290 290 289 289 288 288 288 287 287 286 285 284 284 283
260 263 265 267 269 271 273 276 278 281 283 285 287 288 289 290 291 291 290 290 290 290 290 290 290 290 290 290 290 290 290 289 289 288 288 288 288 288 287 286 286 285 284
263 265 267 269 271 273 275 277 279 281 283 285 287 288 289 290 291 291 290 289 289 289 289 289 289 289 290 290 289 289 289 288 288 289 288 287 288 287 287 287 286 285 284
264 267 269 271 272 274 276 278 280 282 283 285 286 287 288 289 290 290 289 289 288 289 289 289 289 289 289 289 289 289 288 288 288 288 288 288 288 287 287 286 286 286 285
266 268 271 272 274 276 277 278 281 282 283 284 285 286 287 288 289 289 289 289 288 289 289 288 289 289 289 289 288 288 288 288 288 288 289 288 288 288 288 287 286 286 285
268 269 271 273 274 275 277 278 280 281 282 283 284 285 286 288 288 289 288 288 288 288 288 288 289 289 289 288 288 288 289 289 289 290 290 290 289 289 288 288 287 286 285
269 270 272 273 274 275 276 278 280 281 282 282 282 283 285 287 288 288 288 287 287 288 288 288 288 288 288 288 287 288 289 289 290 290 290 290 290 289 288 288 287 286 285
269 270 271 272 274 276 277 278 280 280 280 281 281 282 284 285 286 287 286 286 287 287 287 287 287 288 288 287 287 288 289 290 291 291 291 291 291 290 289 288 288 287 286
269 270 271 272 274 276 277 277 278 279 279 280 281 282 283 284 285 285 285 285 286 287 286 286 287 288 288 287 288 289 290 290 292 292 293 293 292 291 290 289 288 287 287
268 270 271 271 273 274 276 276 277 278 279 280 280 281 281 282 283 284 285 285 286 286 286 286 287 287 288 288 289 289 290 291 291 293 293 294 294 293 292 291 290 289 288
268 269 270 271 272 274 275 275 276 277 278 279 279 279 280 280 281 283 284 284 285 285 286 286 287 288 289 289 289 290 291 291 291 292 293 294 294 293 293 292 291 291 290
267 268 270 271 272 272 273 274 274 275 276 277 277 278 278 279 280 281 283 283 284 285 286 286 287 289 289 290 291 292 293 293 292 292 293 293 294 293 292 292 292 292 291
268 268 269 271 271 271 272 272 273 274 275 275 276 277 278 278 279 280 282 283 283 285 285 286 288 289 290 292 293 294 294 294 295 294 294 294 294 293 293 292 292 292 291
269 269 270 270 270 270 270 271 272 272 273 274 275 276 276 277 278 279 281 282 283 284 285 287 289 290 291 292 293 294 295 296 296 296 295 294 294 294 294 293 292 292 291
Height
5871 5873 5874 5875 5876 5877 5878 5879 5880 5880 5881 5881 5881 5882 5882 5882 5881 5881 5881 5880 5880 5880 5879 5879 5878 5877 5876 5876 5875 5874 5873 5872 5872 5871 5870 5870 5869 5869 5868 5867 5867 5866 5866
5870 5871 5872 5873 5874 5875 5876 5877 5878 5878 5879 5879 5879 5879 5879 5879 5879 5879 5878 5878 5877 5877 5876 5876 5875 5874 5874 5873 5872 5871 5870 5869 5869 5868 5867 5866 5866 5865 5864 5864 5863 5862 5862
5868 5869 5870 5872 5873 5873 5874 5875 5876 5876 5876 5877 5877 5877 5877 5877 5876 5876 5876 5875 5875 5874 5873 5873 5872 5871 5870 5870 5869 5868 5867 5866 5865 5864 5863 5863 5862 5861 5860 5860 5859 5858 5858
5866 5867 5869 5870 5871 5871 5872 5873 5873 5874 5874 5874 5874 5874 5874 5874 5874 5873 5873 5872 5872 5871 5870 5870 5869 5868 5867 5866 5865 5864 5863 5863 5862 5861 5860 5859 5858 5857 5857 5856 5855 5854 5854
5864 5865 5866 5867 5868 5869 5870 5870 5871 5871 5872 5872 5872 5872 5871 5871 5871 5870 5870 5869 5869 5868 5867 5866 5866 5865 5864 5863 5862 5861 5860 5859 5858 5857 5856 5855 5854 5853 5852 5851 5851 5850 5849
5862 5863 5864 5865 5866 5867 5867 5868 5868 5869 5869 5869 5869 5869 5868 5868 5868 5867 5867 5866 5865 5865 5864 5863 5862 5861 5860 5859 5858 5857 5856 5855 5854 5853 5852 5851 5850 5849 5848 5847 5846 5845 5845
5860 5861 5862 5863 5863 5864 5865 5865 5866 5866 5866 5866 5866 5866 5865 5865 5865 5864 5863 5863 5862 5861 5860 5859 5858 5857 5856 5855 5854 5853 5852 5851 5850 5849 5848 5847 5846 5845 5844 5842 5842 5841 5840
5858 5859 5859 5860 5861 5861 5862 5862 5863 5863 5863 5863 5863 5862 5862 5862 5861 5861 5860 5859 5858 5857 5857 5856 5855 5854 5852 5851 5850 5849 5848 5847 5846 5845 5843 5842 5841 5840 5839 5837 5836 5835 5835
5855 5856 5857 5858 5858 5859 5859 5859 5859 5860 5860 5859 5859 5859 5859 5858 5858 5857 5856 5855 5854 5853 5852 5851 5850 5849 5848 5847 5846 5844 5843 5842 5841 5840 5838 5837 5836 5834 5833 5832 5831 5830 5829
5852 5853 5854 5855 5855 5855 5856 5856 5856 5856 5856 5856 5856 5855 5855 5854 5854 5853 5852 5851 5850 5849 5848 5847 5846 5845 5843 5842 5841 5840 5838 5837 5836 5835 5833 5831 5830 5829 5828 5826 5825 5824 5823
5849 5850 5851 5852 5852 5852 5852 5853 5853 5853 5853 5853 5852 5852 5851 5851 5850 5849 5848 5847 5846 5844 5843 5842 5841 5840 5838 5837 5836 5834 5833 5832 5831 5829 5827 5826 5824 5823 5822 5820 5819 5818 5817
5846 5847 5848 5848 5848 5849 5849 5849 5849 5849 5849 5849 5848 5848 5847 5846 5845 5844 5843 5842 5841 5840 5838 5837 5836 5835 5833 5832 5830 5829 5827 5826 5825 5823 5821 5820 5818 5817 5815 5814 5813 5812 5810
5842 5843 5844 5844 5845 5845 5845 5845 5845 5845 5845 5845 5844 5843 5843 5842 5841 5839 5838 5837 5836 5835 5833 5832 5830 5829 5828 5826 5825 5823 5822 5820 5819 5817 5815 5813 5812 5810 5809 5807 5806 5805 5803
5838 5839 5839 5840 5841 5841 5841 5841 5841 5841 5840 5840 5839 5838 5837 5836 5835 5834 5833 5832 5830 5829 5828 5826 5825 5824 5822 5821 5819 5817 5816 5814 5813 5811 5809 5807 5806 5804 5802 5801 5799 5798 5796
5834 5835 5835 5836 5836 5836 5837 5836 5836 5836 5835 5835 5834 5833 5832 5831 5830 5828 5827 5826 5824 5823 5822 5820 5819 5817 5816 5814 5813 5811 5810 5808 5806 5805 5803 5801 5799 5797 5795 5794 5792 5790 5789
5830 5830 5830 5831 5831 5831 5831 5831 5831 5831 5830 5829 5828 5827 5826 5825 5824 5822 5821 5820 5818 5817 5815 5814 5812 5811 5809 5808 5806 5805 5803 5801 5799 5798 5796 5794 5792 5790 5788 5786 5784 5782 5781
5824 5825 5825 5825 5826 5826 5826 5825 5825 5825 5824 5823 5822 5821 5820 5818 5817 5816 5815 5813 5811 5810 5809 5807 5806 5804 5803 5801 5799 5798 5796 5794 5792 5790 5789 5787 5785 5783 5780 5778 5776 5774 5772
5818 5819 5820 5819 5820 5820 5819 5819 5819 5818 5818 5817 5816 5814 5813 5812 5810 5809 5808 5806 5805 5803 5801 5800 5799 5797 5796 5794 5792 5790 5788 5787 5785 5783 5781 5779 5777 5775 5773 5770 5768 5765 5763
5811 5813 5813 5813 5813 5813 5813 5813 5812 5812 5811 5810 5809 5808 5806 5805 5803 5802 5800 5799 5797 5796 5794 5793 5791 5790 5788 5786 5785 5783 5781 5779 5777 5775 5773 5770 5768 5766 5764 5761 5759 5756 5754
5804 5805 5806 5806 5806 5806 5806 5805 5805 5804 5803 5802 5802 5800 5799 5798 5796 5795 5793 5792 5790 5788 5787 5785 5784 5782 5780 5779 5777 5775 5773 5771 5769 5766 5764 5762 5759 5757 5754 5752 5749 5747 5744
5797 5797 5799 5799 5798 5798 5798 5798 5797 5796 5796 5795 5794 5793 5791 5790 5788 5787 5785 5784 5783 5781 5779 5778 5776 5774 5773 5771 5769 5767 5765 5763 5760 5757 5755 5752 5750 5747 5744 5742 5739 5736 5734
5789 5789 5790 5790 5790 5790 5790 5789 5789 5788 5788 5787 5786 5784 5783 5782 5780 5779 5778 5776 5775 5773 5772 5770 5768 5766 5764 5763 5761 5759 5757 5755 5752 5748 5745 5742 5739 5736 5734 5731 5728 5725 5723
5780 5780 5780 5781 5781 5781 5781 5780 5780 5779 5779 5778 5777 5776 5775 5773 5772 5771 5769 5768 5767 5765 5763 5762 5760 5758 5756 5754 5751 5750 5747 5745 5743 5739 5735 5732 5729 5726 5722 5719 5716 5713 5710
5771 5771 5771 5771 5772 5772 5772 5771 5771 5771 5770 5769 5768 5767 5766 5765 5764 5762 5761 5759 5758 5757 5755 5753 5751 5749 5747 5745 5742 5739 5737 5734 5732 5730 5726 5722 5718 5715 5711 5708 5704 5701 5698
5761 5761 5762 5762 5762 5762 5762 5762 5762 5761 5761 5760 5759 5758 5757 5756 5755 5754 5752 5751 5749 5748 5746 5744 5742 5740 5737 5735 5732 5729 5726 5723 5720 5718 5716 5712 5708 5703 5700 5696 5693 5689 5686
5751 5751 5752 5752 5752 5753 5753 5752 5752 5752 5751 5751 5750 5749 5748 5747 5746 5745 5743 5742 5741 5739 5737 5735 5733 5730 5727 5725 5722 5719 5716 5713 5709 5706 5704 5701 5697 5693 5689 5684 5681 5677 5674